EW3758 Weather Reports


time (UTC)temp
F
wind
direction
speed
knots
gust
knots
rain 1hr
in
rain 24hr
in
rain mn
in
humidity
%
barometer
mb
20260506044602 0 0.0 0.0 0.00 0.00 0.00 1013.0
20260506043104 0 308 0.0 0.0 0.00 0.00 0.00 1013.0
20260506041554 45 308 0.0 0.0 0.00 0.00 0.00 87 1012.7
20260506040101 45 307 0.0 0.0 0.00 0.00 0.00 86 1012.5
20260506034551 47 307 0.0 0.0 0.00 0.00 0.00 84 1012.6
20260506033048 47 307 0.0 0.0 0.00 0.00 0.00 82 1012.3
20260506031550 48 308 0.0 0.0 0.00 0.00 0.00 82 1012.0
20260506030045 50 308 0.0 0.0 0.00 0.00 0.00 79 1011.8
20260506024552 52 198 0.0 0.0 0.00 0.00 0.00 76 1011.5
20260506023041 53 203 0.0 0.0 0.00 0.00 0.00 73 1011.5
20260506021556 55 306 0.0 0.0 0.00 0.00 0.00 68 1011.4
20260506020040 58 311 0.0 0.0 0.00 0.00 0.00 57 1011.2
20260506014540 58 310 0.0 0.0 0.00 0.00 0.00 54 1011.1
20260506013045 59 319 0.0 0.0 0.00 0.00 0.00 53 1011.0
20260506011540 59 87 0.0 0.0 0.00 0.00 0.00 54 1011.0
20260506010039 59 46 0.0 0.0 0.00 0.00 0.00 53 1011.1
20260506004536 59 126 0.0 0.0 0.00 0.00 0.00 55 1011.2
20260506003035 58 96 0.0 0.0 0.00 0.00 0.00 56 1011.3
20260506001533 58 92 0.0 0.0 0.00 0.00 0.00 54 1011.4
20260506000032 58 25 0.0 0.0 0.00 0.00 0.00 57 1011.4
20260505234523 57 101 0.0 0.0 0.00 0.00 0.00 58 1011.5
20260505233018 57 88 0.0 0.0 0.00 0.00 0.00 58 1011.8
20260505231517 57 112 0.0 0.0 0.00 0.00 0.00 61 1012.0
20260505230012 57 97 0.0 0.0 0.00 0.00 0.00 60 1012.2
20260505224510 57 99 0.0 0.0 0.00 0.00 0.00 60 1012.3
20260505223006 57 86 0.0 0.0 0.00 0.00 0.00 58 1012.6
20260505221503 58 174 0.0 0.0 0.00 0.00 0.00 61 1012.8
20260505220059 57 112 0.0 0.0 0.00 0.00 0.00 64 1013.0
20260505214615 56 123 0.0 0.0 0.00 0.00 0.00 68 1013.3
20260505213057 55 229 0.0 0.0 0.00 0.00 0.00 69 1013.6
20260505211550 55 174 0.0 0.0 0.00 0.00 0.00 74 1013.8
20260505210048 54 189 0.0 0.0 0.00 0.00 0.00 74 1014.0
20260505204547 53 180 0.0 0.0 0.00 0.00 0.00 74 1014.0
20260505203042 51 199 0.0 0.0 0.00 0.00 0.00 80 1014.2
20260505201538 51 167 0.0 0.0 0.00 0.00 0.00 81 1014.3
20260505200043 50 180 0.0 0.0 0.00 0.00 0.00 80 1014.2
20260505194533 50 173 0.0 0.0 0.00 0.00 0.00 84 1014.4
20260505193035 49 132 0.0 0.0 0.00 0.00 0.00 83 1014.3
20260505191530 48 195 0.0 0.0 0.00 0.00 0.00 86 1014.5
20260505190029 47 140 0.0 0.0 0.00 0.00 0.00 87 1014.6
20260505184524 46 163 0.0 0.0 0.00 0.00 0.00 88 1014.5
20260505183029 44 172 0.0 0.0 0.00 0.00 0.00 93 1014.5
20260505181521 43 172 0.0 0.0 0.00 0.00 0.00 93 1014.5
20260505180023 43 121 0.0 0.0 0.00 0.00 0.00 94 1014.4
20260505174518 42 119 0.0 0.0 0.00 0.00 0.00 96 1014.1
20260505173017 41 119 0.0 0.0 0.00 0.00 0.00 97 1013.8
20260505171519 40 118 0.0 0.0 0.00 0.00 0.00 97 1013.7
20260505170017 39 118 0.0 0.0 0.00 0.00 0.00 98 1013.7
20260505164516 37 117 0.0 0.0 0.00 0.00 0.00 97 1013.5
20260505163018 36 75 0.0 0.0 0.00 0.00 0.00 97 1013.4
20260505161509 35 75 0.0 0.0 0.00 0.00 0.00 97 1013.2
20260505153006 34 74 0.0 0.0 0.00 0.00 0.00 97 1012.6
20260505151503 33 74 0.0 0.0 0.00 0.00 0.00 96 1012.4
20260505140110 0 0.0 0.0 0.00 0.00 0.00 1011.2
20260505124537 0 0.0 0.0 0.00 0.00 0.00 1010.6
20260505123031 0 0.0 0.0 0.00 0.00 0.00 1010.6
20260505121536 0 0.0 0.0 0.00 0.00 0.00 1010.6
20260505120037 0 0.0 0.0 0.00 0.00 0.00 1010.4
20260505114522 0 0.0 0.0 0.00 0.00 0.00 1010.6
20260505113016 0 0.0 0.0 0.00 0.00 0.00 1010.6
20260505111516 0 0.0 0.0 0.00 0.00 0.00 1010.7
20260505101556 0 0.0 0.0 0.00 0.00 0.00 1011.1
20260505100051 0 0.0 0.0 0.00 0.00 0.00 1011.1
20260505094547 0 0.0 0.0 0.00 0.00 0.00 1011.1
20260505093054 0 0.0 0.0 0.00 0.00 0.00 1011.3
20260505091557 0 0.0 0.0 0.00 0.00 0.00 1011.9
20260505090043 0 0.0 0.0 0.00 0.00 0.00 1011.8
20260505084543 0 0.0 0.0 0.00 0.00 0.00 1011.5
20260505083046 0 0.0 0.0 0.00 0.00 0.00 1011.6
20260505081545 0 0.0 0.0 0.00 0.00 0.00 1011.7
20260505080046 0 0.0 0.0 0.00 0.00 0.00 1012.1
20260505074545 0 0.0 0.0 0.00 0.00 0.00 1012.0
20260505073052 0 0.0 0.0 0.00 0.00 0.00 1012.0
20260505071554 0 0.0 0.0 0.00 0.00 0.00 1012.0
20260505070044 0 0.0 0.0 0.00 0.00 0.00 1011.9
20260505064543 0 0.0 0.0 0.00 0.00 0.00 1011.8
20260505063041 0 0.0 0.0 0.00 0.00 0.00 1011.8
20260505061546 0 0.0 0.0 0.00 0.00 0.00 1011.9
20260505060048 0 0.0 0.0 0.00 0.00 0.00 1012.1